Weather History for KHNZ - January, 2013

Change the Weather History Date:

Saturday, January 12, 2013

  Actual Average (KTDF) Record (KTDF)
Temperature  
Mean Temperature 58 °F -  
Max Temperature 68 °F 44 °F 71 °F (2005)
Min Temperature 48 °F 22 °F 2 °F (1968)
Degree Days  
Heating Degree Days 7    
Growing Degree Days 8 (Base 50)    
Moisture  
Dew Point 55 °F    
Average Humidity 93    
Maximum Humidity 97    
Minimum Humidity 75    
Precipitation  
Precipitation 0.00 in - - ()
Sea Level Pressure  
Sea Level Pressure 30.13 in    
Wind  
Wind Speed 4 mph (SSW)    
Max Wind Speed 7 mph    
Max Gust Speed -    
Visibility 4 miles    
Events Fog , Rain    
Averages and records for this station are not official NWS values.
T = Trace of Precipitation, MM = Missing Value Source: NWS Daily Summary

Daily Weather History Graph

Daily Weather History Graph

Search for Another Location

Airport or City:

Trip Planner

Search our weather history database for the weather conditions in past years. The results will help you decide how hot, cold, wet, or windy it might be!

Date:

Astronomy

Jan. 12, 2013 Rise Set
Actual Time 7:25 AM EST 5:19 PM EST
Civil Twilight 6:57 AM EST 5:48 PM EST
Nautical Twilight 6:25 AM EST 6:19 PM EST
Astronomical Twilight 5:54 AM EST 6:50 PM EST
Moon 7:45 AM EST (1/12) 6:43 PM EST (1/12)
Length of Visible Light 10h 50m
Length of Day
9h 54m
New Moon, 1% of the Moon is Illuminated
Jan 12
New Moon
Jan 18
First Quarter
Jan 26
Full
Feb 3
Last Quarter
Feb 10
New

Hourly Weather History & Observations

Time (EST) Temp. Dew Point Humidity Pressure Visibility Wind Dir Wind Speed Gust Speed Precip Events Conditions
12:15 AM 48.4 °F 47.5 °F 97% 30.15 in 0.5 mi WSW 5.8 mph - N/A Fog Fog
12:35 AM 48.4 °F 47.5 °F 97% 30.14 in 0.8 mi WSW 4.6 mph - N/A   Overcast
12:55 AM 48.6 °F 47.7 °F 97% 30.14 in 0.5 mi SW 6.9 mph - N/A Fog Fog
1:15 AM 48.7 °F 47.8 °F 97% 30.14 in 0.2 mi SW 5.8 mph - N/A Fog Fog
1:35 AM 49.1 °F 48.2 °F 97% 30.14 in 0.2 mi SW 6.9 mph - N/A Fog Fog
1:55 AM 49.6 °F 48.7 °F 97% 30.13 in 0.5 mi SW 5.8 mph - N/A Fog Fog
2:35 AM 50.4 °F 49.5 °F 97% 30.14 in 0.8 mi SSW 4.6 mph - N/A   Overcast
2:55 AM 50.9 °F 50.0 °F 97% 30.14 in 1.0 mi SSW 3.5 mph - N/A   Overcast
3:15 AM 50.9 °F 50.0 °F 97% 30.13 in 0.8 mi SW 4.6 mph - N/A   Overcast
3:35 AM 50.9 °F 50.0 °F 97% 30.13 in 0.8 mi SW 4.6 mph - N/A   Overcast
3:55 AM 50.9 °F 50.0 °F 97% 30.12 in 0.8 mi SW 3.5 mph - N/A   Overcast
4:15 AM 51.4 °F 50.5 °F 97% 30.12 in 0.5 mi SW 4.6 mph - N/A Fog Fog
4:35 AM 51.8 °F 50.9 °F 97% 30.12 in 0.2 mi SW 4.6 mph - N/A Fog Fog
4:55 AM 51.8 °F 50.9 °F 97% 30.11 in 0.2 mi SW 5.8 mph - N/A Fog Fog
5:15 AM 51.8 °F 50.9 °F 97% 30.11 in 0.2 mi SW 4.6 mph - N/A Fog Fog
5:35 AM 52.2 °F 51.3 °F 97% 30.11 in 0.2 mi SW 4.6 mph - N/A Fog Fog
5:55 AM 52.5 °F 51.6 °F 97% 30.11 in 0.2 mi SW 5.8 mph - N/A Fog Fog
6:15 AM 51.6 °F 50.7 °F 97% 30.12 in 0.2 mi Calm Calm - N/A Fog Fog
6:35 AM 50.9 °F 50.0 °F 97% 30.12 in 0.2 mi South 3.5 mph - N/A Fog Fog
6:55 AM 50.7 °F 49.8 °F 97% 30.12 in 0.5 mi SSW 3.5 mph - N/A Fog Fog
7:15 AM 50.9 °F 50.0 °F 97% 30.13 in 0.5 mi Calm Calm - N/A Fog Fog
7:35 AM 50.9 °F 50.0 °F 97% 30.13 in 0.5 mi South 3.5 mph - N/A Fog Fog
7:55 AM 50.9 °F 50.0 °F 97% 30.14 in 0.2 mi South 3.5 mph - N/A Fog Fog
8:15 AM 51.3 °F 50.4 °F 97% 30.14 in 0.2 mi South 5.8 mph - N/A Fog Fog
8:35 AM 52.2 °F 51.3 °F 97% 30.15 in 0.2 mi SW 3.5 mph - N/A Fog Fog
8:55 AM 52.5 °F 51.6 °F 97% 30.15 in 0.2 mi Calm Calm - N/A Fog Fog
9:15 AM 52.9 °F 52.0 °F 97% 30.16 in 0.2 mi Calm Calm - N/A Fog Fog
9:35 AM 54.0 °F 53.1 °F 97% 30.16 in 0.2 mi SSW 3.5 mph - N/A Fog Fog
9:55 AM 54.5 °F 53.6 °F 97% 30.16 in 0.8 mi Calm Calm - N/A   Overcast
10:15 AM 55.0 °F 54.1 °F 97% 30.16 in 0.8 mi South 3.5 mph - N/A   Overcast
10:35 AM 55.2 °F 54.3 °F 97% 30.17 in 1.0 mi SSW 4.6 mph - N/A   Overcast
10:55 AM 55.8 °F 54.9 °F 97% 30.16 in 1.8 mi Calm Calm - N/A   Overcast
11:15 AM 56.3 °F 55.4 °F 97% 30.15 in 1.5 mi Calm Calm - N/A   Overcast
11:35 AM 57.9 °F 56.8 °F 96% 30.14 in 3.0 mi SW 3.5 mph - N/A   Overcast
11:55 AM 58.1 °F 57.2 °F 97% 30.13 in 4.0 mi Calm Calm - N/A   Overcast
12:15 PM 59.2 °F 58.3 °F 97% 30.13 in 5.0 mi Calm Calm - N/A   Overcast
12:35 PM 60.8 °F 59.9 °F 97% 30.12 in 7.0 mi Calm Calm - N/A   Overcast
12:55 PM 61.9 °F 61.0 °F 97% 30.12 in 7.0 mi Calm Calm - N/A   Scattered Clouds
1:35 PM 66.2 °F 59.5 °F 79% 30.11 in 10.0 mi Calm Calm - N/A   Clear
1:55 PM 67.5 °F 59.7 °F 76% 30.11 in 10.0 mi ESE 3.5 mph - N/A   Clear
2:15 PM 68.0 °F 59.9 °F 75% 30.11 in 10.0 mi Calm Calm - N/A   Clear
2:35 PM 67.8 °F 59.9 °F 76% 30.11 in 10.0 mi South 4.6 mph - N/A   Clear
2:55 PM 65.7 °F 59.4 °F 80% 30.11 in 10.0 mi South 6.9 mph - N/A   Scattered Clouds
3:15 PM 64.6 °F 59.2 °F 83% 30.12 in 10.0 mi South 5.8 mph - N/A   Mostly Cloudy
3:35 PM 64.6 °F 59.0 °F 82% 30.12 in 10.0 mi South 4.6 mph - N/A   Mostly Cloudy
3:55 PM 64.8 °F 59.2 °F 82% 30.12 in 10.0 mi South 4.6 mph - N/A   Mostly Cloudy
4:15 PM 64.8 °F 59.2 °F 82% 30.12 in 10.0 mi Calm Calm - N/A   Mostly Cloudy
4:35 PM 64.8 °F 59.4 °F 83% 30.12 in 10.0 mi Calm Calm - N/A   Scattered Clouds
4:55 PM 64.4 °F 59.4 °F 84% 30.12 in 10.0 mi Calm Calm - N/A   Scattered Clouds
5:15 PM 63.5 °F 59.0 °F 85% 30.12 in 10.0 mi Calm Calm - N/A   Clear
5:35 PM 63.0 °F 59.0 °F 87% 30.12 in 10.0 mi SE 3.5 mph - N/A Rain Light Rain
5:55 PM 62.2 °F 59.0 °F 89% 30.12 in 10.0 mi Calm Calm - N/A   Clear
6:15 PM 61.5 °F 59.0 °F 91% 30.12 in 10.0 mi Calm Calm - N/A   Clear
6:35 PM 61.9 °F 59.0 °F 90% 30.12 in 10.0 mi SSE 3.5 mph - N/A   Clear
6:55 PM 60.4 °F 58.1 °F 92% 30.12 in 10.0 mi SE 3.5 mph - N/A   Clear
7:15 PM 61.0 °F 59.0 °F 93% 30.12 in 10.0 mi SSE 4.6 mph - N/A   Clear
7:35 PM 60.8 °F 58.8 °F 93% 30.11 in 7.0 mi SSE 4.6 mph - N/A   Clear
8:15 PM 60.1 °F 58.3 °F 94% 30.11 in 5.0 mi SSE 3.5 mph - N/A   Clear
8:35 PM 59.5 °F 58.1 °F 95% 30.11 in 4.0 mi SE 4.6 mph - N/A   Clear
8:55 PM 59.2 °F 57.6 °F 94% 30.11 in 3.0 mi Calm Calm - N/A   Clear
9:15 PM 58.8 °F 57.4 °F 95% 30.12 in 0.8 mi Calm Calm - N/A   Overcast
9:35 PM 58.3 °F 57.2 °F 96% 30.12 in 1.2 mi SSE 3.5 mph - N/A   Overcast
9:55 PM 58.3 °F 57.2 °F 96% 30.12 in 0.5 mi South 3.5 mph - N/A Fog Fog
10:15 PM 58.1 °F 57.2 °F 97% 30.11 in 0.5 mi SSE 3.5 mph - N/A Fog Fog
10:35 PM 57.6 °F 56.5 °F 96% 30.12 in 0.2 mi SSE 3.5 mph - N/A Fog Fog
10:55 PM 57.6 °F 56.5 °F 96% 30.12 in 0.5 mi SSE 3.5 mph - N/A Fog Fog
11:15 PM 57.4 °F 56.3 °F 96% 30.12 in 0.5 mi Calm Calm - N/A Fog Fog
11:35 PM 57.2 °F 55.9 °F 96% 30.12 in 0.5 mi SSE 3.5 mph - N/A Fog Fog
11:55 PM 57.2 °F 55.9 °F 96% 30.12 in 0.2 mi Calm Calm - N/A Fog Fog